Regional Weather Roundup
Issued by NWS Newport/Morehead, NC

Current Version | Previous Version | Graphics & Text | Print | Product List | Glossary Off
Versions: 1 2 3 4 5 6 7 8 9 10 11 12 13 14 15 16 17 18 19 20 21 22 23 24 25 26 27 28 29 30 31 32 33 34 35 36 37 38 39 40 41 42 43 44 45 46 47 48 49 50
111 ASUS42 KMHX 261613 RWRMHX WEATHER ROUNDUP FOR EASTERN NORTH CAROLINA NATIONAL WEATHER SERVICE NEWPORT/MOREHEAD CITY NC 1200 PM EDT WED APR 26 2017 NOTE: "FAIR" INDICATES FEW OR NO CLOUDS BELOW 12,000 FEET WITH NO SIGNIFICANT WEATHER AND/OR OBSTRUCTIONS TO VISIBILITY NCZ015>017-031-032-045>047-102-103-261700- NORTH COAST CITY SKY/WX TMP DP RH WIND PRES REMARKS EDENTON CLOUDY 68 59 74 CALM 29.84S ELIZABETH CITY CLOUDY 67 62 84 SW9 29.82S KITTY HAWK CLOUDY 64 60 89 W5 29.82R MANTEO CLOUDY 64 61 90 NW8 29.83S $$ NCZ045>047-081-094-103-104-261700- CENTRAL COAST CITY SKY/WX TMP DP RH WIND PRES REMARKS FRISCO CLOUDY 70 59 68 VRB7 29.84R $$ NCZ095-097-098-100-101-261700- SOUTHERN COAST CITY SKY/WX TMP DP RH WIND PRES REMARKS BEAUFORT FAIR 71 63 75 VRB6 29.86R CEDAR ISLAND NOT AVBL JACKSONVILLE FAIR 73 61 65 W10 29.85S PINEY ISLAND NOT AVBL WILMINGTON CLOUDY 73 60 63 W6 29.88R $$ NCZ011>013-027>030-043-044-078>080-089-090>093-098-261700- COASTAL PLAIN CITY SKY/WX TMP DP RH WIND PRES REMARKS AHOSKIE N/A 67 58 71 W3 29.83S CLINTON FAIR 72 62 70 SW5 29.87F ELIZABETHTOWN FAIR 73 60 63 W6 29.87F GOLDSBORO CLOUDY 72 63 74 SW7 29.84S GREENVILLE FAIR 72 59 64 NW8 29.86S HAVELOCK PTSUNNY 73 60 63 W7 29.86R KENANSVILLE CLOUDY 73 61 64 W7 29.86F KINSTON PTSUNNY 73 59 60 W6 29.86S NEW BERN FAIR 74 62 66 W10 29.86R RICHLANDS FAIR 74 61 63 VRB3 29.87R ROCKY MOUNT FAIR 73 62 68 W7 29.83S WASHINGTON FAIR 69 60 71 W7 29.84S WHITEVILLE FAIR 73 62 67 SW3 29.87F $$ AMZ130-135-150-152-154-156-158-170-250-252-270-ANZ085-086-088-633-658-670-261700- MARINE OBSERVATIONS STATION/POSITION TIME TEMP WIND PRES WAVE SWELL AIR SEA DIR/SP/G HT/PER HT/PER (UTC) (F) (DEG/KT/KT) (MB) (FT/S) (FT/S) CHESAPEAKE LIGHT NOT AVBL 64 E VA BEACH 1550 56 55 270/ 8/ 10 1009.8 7/ 9 7/ 9 DUCK 1548 64 59 260/ 12/ 14 1009.2 2 E DUCK 1530 60 N/A 4/ 9 2/11 OREGON INLET 1536 63 64 250/ 7/ 9 1009.8 13E OREGON INLT 1548 61 N/A 5/ 8 5/ 8 HATTERAS CG 1548 67 68 260/ 11/ 12 1010.2 DIAMOND BUOY 1550 68 76 280/ 10/ 14 1010.5 7/ 9 7/ 9 CAPE LOOKOUT 1600 68 260/ 9/ 11 1010.9 BEAUFORT LAB 1548 69 65 250/ 4/ 6 1010.3 30 SE NEW RVR IN 1508 65 300/ 10/ 12 1011.4 30 SE NEW RVR IN 1543 71 N/A 4/ 9 2/11 27 SE WRIGHTSVLE 1508 67 71 270/ 8/ 10 1011.1 5 SE WRIGHTSVLE 1508 68 70 270/ 8/ 10 1011.4 225 S CAPE HAT 1550 74 75 230/ 17/ 19 1012.6 8/ 8 3/13 41 SE CHARLESTON 1600 72 73 240/ 12/ 16 1012.1 $$

USA.gov is the U.S. government's official web portal to all federal, state and local government web resources and services.